Weather History for Pituffik, Greenland

Change the Weather History Date:

Sunday, February 17, 2013

  Actual Average Record
Temperature  
Mean Temperature -17 °F -  
Max Temperature -11 °F -4 °F 10 °F (2012)
Min Temperature -23 °F -18 °F -29 °F (1999)
Degree Days  
Heating Degree Days 82    
Moisture  
Dew Point -22 °F    
Average Humidity 75    
Maximum Humidity 77    
Minimum Humidity 70    
Precipitation  
Precipitation 0.00 in 0.01 in - ()
Sea Level Pressure  
Sea Level Pressure 30.21 in    
Wind  
Wind Speed 7 mph ()    
Max Wind Speed 10 mph    
Max Gust Speed -    
Visibility 5.9 miles    
Events      
Averages and records for this station are not official NWS values.
T = Trace of Precipitation, MM = Missing Value Source: Averaged Metar Reports

Daily Weather History Graph

Daily Weather History Graph

Search for Another Location

Airport:

Trip Planner

Search our weather history database for the weather conditions in past years. The results will help you decide how hot, cold, wet, or windy it might be!

Date:

Astronomy

Feb. 17, 2013 Rise Set
Actual Time 10:24 AM AST 3:15 PM AST
Civil Twilight 8:27 AM AST 5:13 PM AST
Nautical Twilight 6:40 AM AST 7:00 PM AST
Astronomical Twilight 4:54 AM AST 8:47 PM AST
Moon No Moon Rise No Moon Set
Length of Visible Light 8h 46m
Length of Day
4h 51m
Waxing Crescent, 48% of the Moon is Illuminated
Feb 17
Waxing Crescent
Feb 17
First Quarter
Feb 25
Full
Mar 4
Last Quarter
Mar 11
New

Hourly Weather History & Observations

Time (AST) Temp. Windchill Dew Point Humidity Pressure Visibility Wind Dir Wind Speed Gust Speed Precip Events Conditions
12:58 AM -22.4 °F -44.0 °F -28.5 °F 73% 30.16 in 6.2 mi East 10.4 mph - N/A   Clear
1:58 AM -20.7 °F -42.0 °F -26.5 °F 75% 30.17 in 6.2 mi East 10.4 mph - N/A   Clear
2:58 AM -20.9 °F -38.1 °F -26.9 °F 74% 30.17 in 6.2 mi East 6.9 mph - N/A   Clear
3:58 AM -20.4 °F -39.0 °F -26.3 °F 74% 30.18 in 6.2 mi East 8.1 mph - N/A   Clear
4:58 AM -22.2 °F -42.6 °F -28.1 °F 74% 30.18 in 6.2 mi East 9.2 mph - N/A   Clear
5:58 AM -23.8 °F -45.8 °F -29.7 °F 74% 30.18 in 6.2 mi East 10.4 mph - N/A   Clear
6:58 AM -21.3 °F -40.1 °F -27.2 °F 74% 30.19 in 6.2 mi East 8.1 mph - N/A   Clear
7:58 AM -18.6 °F -36.8 °F -24.3 °F 75% 30.19 in 6.2 mi East 8.1 mph - N/A   Clear
8:58 AM -18.6 °F -33.6 °F -24.5 °F 74% 30.19 in 6.2 mi East 5.8 mph - N/A   Clear
9:58 AM -16.4 °F -29.1 °F -22.2 °F 75% 30.18 in 6.2 mi East 4.6 mph - N/A   Clear
10:58 AM -15.5 °F -30.0 °F -21.5 °F 75% 30.17 in 6.2 mi East 5.8 mph - N/A   Clear
11:58 AM -16.1 °F -28.6 °F -22.5 °F 72% 30.17 in 6.2 mi East 4.6 mph - N/A   Clear
12:58 PM -17.9 °F -34.5 °F -24.5 °F 72% 30.18 in 6.2 mi East 6.9 mph - N/A   Clear
1:58 PM -18.6 °F -36.8 °F -25.1 °F 72% 30.17 in 6.2 mi East 8.1 mph - N/A   Clear
2:58 PM -15.7 °F -31.9 °F -22.5 °F 71% 30.19 in 6.2 mi East 6.9 mph - N/A   Clear
3:58 PM -15.7 °F -35.7 °F -22.2 °F 73% 30.19 in 6.2 mi East 10.4 mph - N/A   Clear
4:58 PM -14.1 °F -31.3 °F -20.4 °F 73% 30.19 in 6.2 mi East 8.1 mph - N/A   Clear
5:22 PM -13.0 °F -27.0 °F -18.4 °F 77% 30.22 in 6.2 mi East 5.8 mph - N/A   Mostly Cloudy
5:23 PM -13.0 °F -25.1 °F -18.4 °F 77% 30.22 in 6.2 mi East 4.6 mph - N/A   Mostly Cloudy
5:38 PM -13.0 °F -25.1 °F -18.4 °F 77% 30.22 in 5.0 mi East 4.6 mph - N/A   Haze
5:58 PM -12.1 °F -27.5 °F -17.9 °F 76% 30.20 in 5.6 mi East 6.9 mph - N/A   Haze
6:06 PM -11.2 °F -26.4 °F -18.4 °F 70% 30.22 in 5.6 mi East 6.9 mph - N/A   Haze
6:11 PM -11.2 °F -26.4 °F -18.4 °F 70% 30.22 in 5.6 mi East 6.9 mph - N/A   Haze
6:58 PM -11.4 °F -20.8 °F -17.0 °F 76% 30.21 in 5.0 mi East 3.5 mph - N/A   Haze
7:10 PM -11.2 °F -23.0 °F -16.6 °F 77% 30.23 in 3.7 mi East 4.6 mph - N/A   Haze
7:19 PM -11.2 °F -24.8 °F -16.6 °F 77% 30.23 in 3.7 mi East 5.8 mph - N/A   Haze
7:58 PM -11.6 °F -26.9 °F -17.1 °F 76% 30.22 in 6.2 mi East 6.9 mph - N/A   Overcast
8:01 PM -11.2 °F -26.4 °F -16.6 °F 77% 30.24 in 6.2 mi East 6.9 mph - N/A   Overcast
8:27 PM -11.2 °F -26.4 °F -16.6 °F 77% 30.24 in 6.2 mi East 6.9 mph - N/A   Overcast
8:58 PM -11.6 °F -25.3 °F -17.1 °F 76% 30.22 in 6.2 mi East 5.8 mph - N/A   Mostly Cloudy
9:58 PM -11.6 °F -26.9 °F -17.1 °F 76% 30.24 in 6.2 mi East 6.9 mph - N/A   Overcast
10:34 PM -16.6 °F -34.4 °F -22.0 °F 76% 30.26 in 6.2 mi East 8.1 mph - N/A   Overcast
10:47 PM -14.8 °F -32.2 °F -20.2 °F 77% 30.26 in 6.2 mi East 8.1 mph - N/A   Mostly Cloudy
10:50 PM -14.8 °F -32.2 °F -20.2 °F 77% 30.26 in 6.2 mi East 8.1 mph - N/A   Scattered Clouds
10:58 PM -15.2 °F -31.2 °F -20.9 °F 75% 30.25 in 6.2 mi East 6.9 mph - N/A   Scattered Clouds
11:58 PM -18.6 °F -39.3 °F -24.5 °F 74% 30.25 in 6.2 mi East 10.4 mph - N/A   Clear